Regional Weather Roundup
Issued by NWS

Home | Current Version | Previous Version | Graphics & Text | Print | Product List | Glossary Off
Versions: 1 2 3 4 5 6 7 8 9 10 11 12 13 14 15 16 17 18 19 20 21 22 23 24 25 26 27 28 29 30 31 32 33 34 35 36 37 38 39 40 41 42 43 44 45 46 47 48 49 50

000
ASUS43 KDMX 191301
RWRIA

WEATHER ROUNDUP FOR IOWA
NATIONAL WEATHER SERVICE DES MOINES IA
700 AM CST MON FEB 19 2018

NOTE: "FAIR" INDICATES FEW OR NO CLOUDS BELOW 12,000 FEET WITH NO
SIGNIFICANT WEATHER AND/OR OBSTRUCTIONS TO VISIBILITY.

* - THESE STATIONS ARE NOT NWS STATIONS...THUS NOT UNDER NWS
QUALITY CONTROL.  THEY ALSO DO NOT REPORT WEATHER SUCH
AS PRECIPITATION OR FOG.

IAZ001>003-012>014-020>022-031>034-043>046-191400-
   NORTHWEST IOWA

CITY           SKY/WX    TMP DP  RH WIND       PRES   REMARKS
CARROLL *      LGT SNOW  28  27  93 N10G17    29.71R WCI  19
CHEROKEE *     LGT SNOW  22  21  96 N15G23    29.77R WCI   8
DENISON *      LGT RAIN  27  27 100 MISG      29.72S
LE MARS *      CLOUDY    19  18  93 N21       29.81R FOG     WCI   3
ORANGE CITY *  MIX PCPN  18  18 100 N12G23    29.80R WCI   5
SHELDON *      LGT SNOW  18  18 100 N23G30    29.78S WCI   0
SIOUX CITY     LGT SNOW  20  18  92 N24G30    29.82R FOG     WCI   3
SPENCER        FRZ RAIN  21  18  88 MISG      29.78R FOG
STORM LAKE *   CLEAR     23  21  93 MISG      29.72S FOG
$$

IAZ055>058-069>071-079>083-090>094-191400-
   SOUTHWEST IOWA

CITY           SKY/WX    TMP DP  RH WIND       PRES   REMARKS
ATLANTIC *     CLOUDY    32  32 100 N16       29.67R FOG     WCI  21
AUDUBON *      MIX PCPN  28  27  93 N14       29.69R WCI  17
CLARINDA *     CLOUDY    48  48 100 NW7       29.63R FOG
COUNCIL BLFS * CLOUDY    28  28 100 N16G25    29.69R FOG     WCI  17
CRESTON *      FOG       45  45 100 SE8       29.62S VSB 1/4
HARLAN  *      CLOUDY    28  28 100 MISG      29.71S FOG
LAMONI         FOG       48  47  96 SE9       29.61F VSB 1/2
RED OAK *      CLOUDY    34  34 100 N16G28    29.65R FOG     WCI  23
SHENANDOAH *   CLOUDY    34  34 100 N15G24    29.65R FOG     WCI  24
$$

IAZ047>049-059>061-072>074-084-191400-
   CENTRAL IOWA

CITY           SKY/WX    TMP DP  RH WIND       PRES   REMARKS
AMES           LGT RAIN  35  34  96 NW7       29.67S FOG     WCI  29
ANKENY *       MIX PCPN  43  43 100 CALM      29.65S
BOONE *        MIX PCPN  32  32 100 N14       29.67R VSB 1   WCI  22
CHARITON *     CLOUDY    45  45 100 SE12G17   29.63F
DES MOINES     LGT RAIN  46  44  93 SE12      29.64S
GRINNELL*      DRIZZLE   42  41  96 SE12      29.67F
KNOXVILLE *    CLOUDY    46  46 100 SE12      29.64F
MARSHALLTOWN   LGT RAIN  39  39 100 SE6       29.66S FOG     WCI  35
NEWTON *       FOG       41  41 100 SE10      29.65F VSB 3/4
PELLA *        CLOUDY    44  44  98 SE9       29.67F FOG
$$

IAZ004>006-015-016-023>025-035-036-191400-
   NORTH CENTRAL IOWA

CITY           SKY/WX    TMP DP  RH WIND       PRES   REMARKS
CLARION *      CLOUDY    30  30 100 N18       29.71S FOG     WCI  18
ESTHERVILLE    LGT SNOW  20  18  92 MISG      29.78R FOG
FORT DODGE *   LGT SNOW  29  27  92 N15       29.71F FOG     WCI  18
MASON CITY     LGT SNOW  29  26  89 N18       29.73S FOG     WCI  16
FOREST CITY *  MIX PCPN  30  28  93 N15G22    29.74S WCI  19
IOWA FALLS *   DRIZZLE   35  33  92 N8        29.70R WCI  28
$$

IAZ007>011-017>019-026>030-037>042-050>054-066-191400-
   NORTHEAST IOWA

CITY           SKY/WX    TMP DP  RH WIND       PRES   REMARKS
CEDAR RAPIDS   CLOUDY    42  39  89 S9        29.70F
CHARLES CITY * MIX PCPN  34  34 100 N8        29.72R WCI  27
DECORAH *      CLOUDY    36  32  87 E3        29.73R
DUBUQUE        CLOUDY    37  33  85 S7        29.75S WCI  32
MONTICELLO *   CLOUDY    39  36  87 SE12      29.73S WCI  32
OELWEIN *      CLOUDY    36  36 100 SE10      29.70F WCI  28
WATERLOO       CLOUDY    35  33  92 E5        29.69F WCI  31
$$

IAZ064-065-067-068-078-191400-
   EAST CENTRAL IOWA

CITY           SKY/WX    TMP DP  RH WIND       PRES   REMARKS
DAVENPORT      CLOUDY    42  39  89 SE10      29.77F FOG
IOWA CITY      LGT RAIN  39  36  89 SE7       29.73F FOG     WCI  34
MUSCATINE *    LGT RAIN  41  41 100 SE5       29.74F
QUAD CITIES    CLOUDY    42  41  96 SE6       29.75F FOG
$$

IAZ062-063-075>077-085>089-095>099-191400-
   SOUTHEAST IOWA

CITY           SKY/WX    TMP DP  RH WIND       PRES   REMARKS
BURLINGTON     CLOUDY    45  44  97 SE7       29.73F FOG
FAIRFIELD *    CLOUDY    46  46 100 SE12      29.68F FOG
FORT MADISON * CLOUDY    46  46 100 SE8       29.73F FOG
KEOKUK *       CLOUDY    46  45  93 E6        29.72F FOG
OSKALOOSA *    LGT RAIN  41  41  97 SE9       29.67F VSB 1/2
OTTUMWA        CLOUDY    47  45  93 SE12      29.67F
WASHINGTON *   CLOUDY    43  43 100 SE14      29.71F FOG
$$

ABBREVIATIONS USED IN REMARKS
   TC - TEMPERATURES IN CELSIUS
  WCI - WIND CHILL INDEX
   HX - HEAT INDEX
  VSB - VISIBILITY
$$




USA.gov is the U.S. government's official web portal to all federal, state and local government web resources and services.